Location: Arthez
(43.0833°N, 0.2500°W)
Time: 21:06:45
(UTC+00:00)

Meteor 1-4 Rocket - Pass Details

Date: 23 October 2021
Orbit: 447 x 496 km, 81.2° (Epoch: 06 December)

Event Time Altitude Azimuth Distance (km) Brightness Sun altitude
Rises 18:58:13 0° 203° (SSW) 2,471 6.4 -21.2°
Reaches altitude 10° 19:00:22 10° 210° (SSW) 1,594 5.5 -21.6°
Maximum altitude 19:03:41 43° 283° (WNW) 652 3.6 -22.2°
Drops below altitude 10° 19:07:01 10° 357° (N) 1,590 5.3 -22.8°
Enters shadow 19:08:25 - 2° (N) 2,162 5.9 -23.1°
